[Date Prev][Date Next][Thread Prev][Thread Next][Date Index][Thread Index]

[jamsat-news:1639] jas2info #256



========================   ºÇ¿·¾ðÊó   ==============================

        Last updated ¡§22Dec.2001 ¡¡16¡§10(JST)   #256

====================================================================
   
£±¡Ë¥¢¥Þ¥Á¥å¥¢ÄÌ¿®±ÒÀ±¾ðÊ󡢣ƣϥ·¥ê¡¼¥º¤Îµ°Æ»Í×ÁÇ¡¢¥Æ¥ì¥á¥È¥ê¡¢£Ñ£Ó£Ï¤Î
¡¡¡¡¡¡¾õ¶·Åù¤ò¤Þ¤È¤á¤Æ¤ß¤Þ¤·¤¿¡¥
¡¡¡¡¡¡
¡¡£Æ£Ï¡Ý£²£¹¤Î£²£°£°£±Ç¯£±£²·î£²£²Æü¡ÊÅڡˤΣ°£¸¡§£´£±¡Ê£Ê£Ó£Ô¡Ë¤Î¥Ñ¥¹¤Ç¤Ï
£Ê£Á£Ò£Ì¤Î¥Û¡¼¥à¥Ú¡¼¥¸¤Î¤È¤¦¤ê¥¢¥Ê¥í¥°±¿ÍѤǤ·¤¿¡£¡¡º£Æü¤Þ¤Ç¤Î´Ñ¬¤·¤¿
¥Æ¥ì¥á¥È¥ê¡¼¤ÈºÇ½ª¤ÎʬÀÏ·ë²Ì¤òÊó¹ð¤·¤Æ¤ª¤­¤Þ¤¹¡£

AS26404C  22Dec2001
08:50-08:57(JST)
Freq. 435.794-.788MHz

HI HI AE C7 88 55 00 D4 00 00 09 00 8E 8A 71 64 9D 99 B0 53 96 90 8E 94 92 
HI HI AE C7 88 55 00 D4 00 00 09 00 8F 91 71 64 9D 99 B0 5C 96 8F 8E 94 92 
HI HI AE C7 88 55 00 D4 00 00 09 00 8F 98 71 64 9D 9A B1 5E 97 8F 8E 94 92 
HI HI AE C7 88 55 00 D4 00 00 09 00 8F 9D 70 64 9D 9A B0 60 96 8F 8E 94 92 
HI HI AE C7 88 55 00 D4 00 00 09 00 8F A1 71 64 9D 9A B0 64 96 8F 8D 94 92 
HI HI AE C7 88 55 00 D4 00 00 09 00 8D A3 71 64 9D 9A B0 62 96 8F 8D 94 92 
HI HI AE C7 88 55 00 D4 00 00 09 00 8B A4 72 64 9E 9A B0 6D 96 8F 8D 94 92 
HI HI AE C7 88 55 00 D4 00 00 09 00 89 A2 74 64 9E 9A B0 5D 96 8F 8D 94 92 
HI HI AE C7 88 55 00 D4 00 00 09 00 85 9F 75 64 9E 9A B0 60 96 8F 8D 94 92 

AS26396C1   21Dec2001
19:06-19:22(JST)
Freq. 435.806-.786MHz

HI HI AE 07 88 55 00 D4 7E 37 09 3B 5D 20 00 89 88 87 93 65 99 9A 96 94 97 
HI HI AE 07 88 55 00 D4 7E 37 09 3B 5B 23 00 87 88 87 93 63 99 9A 96 94 97 
HI HI ME 07 88 55 00 D4 7E 37 09 3B 5B 27 00 88 87 87 92 71 99 9A 96 94 97 
HI HI AE 07 88 55 00 D4 7E 37 09 3B 5B 2C 00 88 87 87 92 77 9A 9A 96 94 97 
HI HI AE 07 88 55 00 D4 7E 37 09 3B 5D 30 00 87 88 86 92 63 9A 9A 97 95 97 
HI HI AE 07 88 55 00 D4 7E 37 09 3B 5F 35 00 88 87 86 92 6D 9A 9B 97 95 97 
HI HI AE 07 88 55 00 D4 7E 37 09 3B 61 38 00 87 87 86 92 7D 9A 9B 97 95 97 
HI HI AE 07 88 55 00 D4 7E 37 09 3B 64 3C 00 88 87 86 91 6E 9A 9B 98 96 97 
HI HI AE 07 88 55 00 D4 7E 37 09 3B 68 3F 01 88 86 85 91 6D 9A 9B 98 96 97 
HI HI AE 07 88 55 00 D4 7E 37 09 3B 6B 43 41 64 89 88 94 80 9B 9B 98 96 97 
HI HI AE 07 88 55 00 D4 7E 37 09 3B 6F 45 6E 50 8D 8A 97 79 9B 9B 98 96 97 
HI HI AE 07 88 55 00 D4 7E 37 09 3B 72 45 6B 51 8E 8B 98 67 9B 9B 98 97 97 
HI HI AE 07 88 55 00 D4 33 1F 09 33 74 45 6B 51 8F 8D 9A 5F 9B 9C 99 97 97 
HI HI AE 07 88 55 00 D4 33 1F 09 33 76 44 6E 51 9A 8E 9B 57 9B 9C 99 97 97 
HI HI AE 07 88 55 00 D4 33 1F 09 33 77 42 71 4F 91 8F 9B 52 9B 9C 99 97 97 
HI HI AE 07 88 55 00 D4 33 1F 09 33 78 40 73 4D 92 8F 9D 6F 9C 9C 99 98 97 
HI HI AE 07 88 55 00 D4 33 1F 09 33 77 3D 73 4E 92 90 9D 7B 9C 9C 9A 98 97 
HI HI AE 07 88 55 00 D4 33 1F 09 33 75 3B 73 4D 93 90 9E 75 9C 9C 9A 98 97 
HI HI AE C7 88 55 00 D4 33 1F 09 33 72 37 73 5F 90 8E B0 B0 9C 9C 9A 99 97 
HI HI AE C7 88 55 00 D4 33 1F 09 33 6E 35 73 5F 91 8E B0 91 9C 9C 9A 99 97 
HI HI AE C7 88 55 00 D4 33 1F 09 33 69 33 75 5F 90 8E B0 7C 9C 9C 9A 99 97 
HI HI AE C7 88 55 00 D4 33 1F 09 33 64 31 74 5F 91 8E B0 84 9C 96 9B 99 97

AS26369C  19Dec2001
19:09-19:26(JST)
Freq. 435.803-.786MHz

HI HI AE 07 88 55 00 D4 98 4A 09 05 5B 26 00 88 88 87 93 A2 90 8E 91 82 8F 
HI HI AE 07 88 55 00 D4 98 4A 09 05 53 2D 00 88 88 87 93 78 90 8E 92 93 8F 
HI HI AE 07 88 55 00 D4 98 4A 09 05 4C 36 00 88 88 87 93 79 90 8E 92 93 8F 
HI HI AE 07 88 55 00 D4 98 4A 09 05 46 3F 00 89 88 87 93 7C 91 8F 92 93 8F 
HI HI AE 07 88 55 00 D4 98 4A 09 05 41 4A 00 89 87 87 93 7E 91 8F 92 93 8F 
HI HI AE 07 88 55 00 D4 98 4A 09 05 3D 55 00 89 87 87 92 79 91 8F 93 93 8F 
HI HI AE 07 88 55 00 D4 98 4A 09 05 3B 61 00 88 87 86 92 6D 91 8F 93 93 8F 
HI HI AE 07 88 55 00 D4 98 4A 09 05 3A 6D 00 89 87 86 91 74 91 8F 93 93 8F 
HI HI AE 07 88 55 00 D4 98 4A 09 05 3A 78 00 87 87 86 92 69 91 8F 94 94 8F 
HI HI AE 07 88 55 00 D4 98 4A 09 05 3F 8D 2A 71 87 88 93 6A 92 90 94 94 8F 
HI HI AE 07 88 55 00 D4 98 4A 09 05 45 97 6E 4F 8C 8A 97 68 92 91 94 94 8F 
HI HI AE 07 88 55 00 D4 98 4A 09 05 4A 9D 75 4D 8F 8C 99 67 93 91 94 94 8F 
HI HI AE 07 88 55 00 D4 98 4A 09 05 4F A1 77 4C 90 8D 9B 5D 93 91 94 94 8F 
HI HI AE 07 88 55 00 D4 98 4A 09 05 55 A4 78 4B 92 8F 9C 5E 93 91 95 95 8F 
HI HI AE 07 88 55 00 D4 98 4A 09 05 5B A6 78 4B 92 8F 9C 64 93 92 94 94 8F
HI HI AE 07 88 55 00 D4 98 4A 09 05 5F A7 74 4E 92 8F 9D 7B 93 92 95 95 8F 
HI HI AE 07 88 55 00 D4 98 4A 09 05 63 A7 6A 52 91 8F 9C 8E 93 92 95 95 8F 
HI HI AE 07 88 55 00 D4 98 4A 09 05 66 A6 61 56 91 8F 9C 78 94 93 95 95 8F 
HI HI AE 07 88 55 00 D4 98 4A 09 05 68 A6 61 56 91 8F 9D 66 94 93 95 95 8F 
HI HI AE 07 88 55 00 D4 98 4A 09 05 69 A5 64 5F 91 8E B0 69 94 93 96 95 90 
HI HI AE C7 88 55 00 D4 98 4A 09 05 69 A5 61 5F 90 8E B0 65 94 93 96 95 90 
HI HI AE C7 88 55 00 D4 98 4A  

AS26356C  18Dec2001
20:04-20:21(JST)
Freq. 435.803-.786MHz

                                                            97 94 90 93 93 
HI HI AE 07 88 55 00 D4 D1 39 09 2B 31 5D 00 87 88 88 93 6D 97 94 90 93 93 
HI HI AE 07 88 55 00 D4 D1 39 09 2B 34 64 00 88 88 87 93 82 97 95 90 93 93 
HI HI AE 07 88 55 00 D4 D1 39 09 2B 37 6C 00 86 88 87 93 70 97 95 90 93 93 
HI HI AE 07 88 55 00 D5 D1 39 09 2B 3B 75 01 88 88 87 93 6F 98 95 90 94 93 
HI HI AE 07 88 55 00 D4 D1 39 09 2B 3F 7E 00 88 88 87 93 78 98 95 90 94 93 
HI HI AE 07 88 55 00 D4 D1 39 09 2B 44 87 00 89 88 87 92 65 98 95 91 94 93 
HI HI AE 07 88 55 00 D4 D1 39 09 2B 49 90 00 88 87 86 92 82 98 95 91 94 93 
HI HI AE 07 88 55 00 D4 D1 39 09 2B 4F 99 00 88 87 86 92 7A 98 95 91 94 93 
HI HI AE 07 88 55 00 D4 D1 39 09 2B 55 9E 00 88 87 86 91 6E 99 96 92 95 93 
HI HI AE 07 88 55 09 D4 D1 39 09 2B 5C A7 01 87 87 86 91 83 99 96 92 95 93
HI HI AE 07 88 55 09 D4 N1 39 09 2B                8A 97 84 99 96 92 96 93 
HI HI AE 07 88 55 00 D4 D1 39 09 2B 71 B0 7A 4A 8F 8C 9A 6E 99 97 93 96 93 
HI HI AE 07 88 55 00 D4 D1 39 09 2B 77 AE  9 4B 91 8E 9C 7C 9A 97 93 96 93 
HI HI AE 07 88 55 00 D4 D1 39 09 2B 7D A9 79 4A 92 8F 9D 72 9A 97 93 96 93 
HI HI AE 07 88 55 00 D4 D1 39 09 2B 83 A2 78 4B 92 8F 9D 5F 9A 97 93 96 93 
HI HI AE 07 88 55 00 D4 D1 39 09 2B 89 99 75 50 93 8E 9D 5F 9A 98 94 96 93 
HI HI AE C7 88 55 00 D4 D1 39 09 2B 90 83 6F 5F 90 8E B0 63 9B 98 94 96 93 
HI HI AE C7 88 55 00 D4 D1 39 09 2B 94 78 6A 5F 90 8E B0 70 9B 98 94 96 93 
HI HI AE C7 88 55 00 D4 D1 39 09 2B 96 6E 63 5F 90 8E B0 68 9B 98 94 96 93 
HI HI AE C7 88 55 00 D4 D1 39 09 2B 97 65 60 5  90 8E B0 6C 9B 98 94 97 93 
HI HI AE C7 88 55 00 D4 D1 39  

AS26342C   17Dec2001
19:14-19:31(JST)
Freq. 435.803-.785MHz

HI HI AE 07 88 55 00 D4 76 6C 09 45 5F 20 00 89 88 88 93 81 91 8C 94 96 91 
HI HI AE 07 88 55 00 D4 76 6C 09 45 5A 25 00 88 88 87 93 78 91 8D 95 96 91 
HI HI AE 07 88 55 00 D4 76 6C 09 45 56 2C 00 89 88 87 93 78 91 8D 95 96 91 
HI HI AE 07 88 55 00 D4 76 6C 09 45 52 35 00 88 88 87 92 6D 92 8D 95 96 91 
HI HI AE 07 88 55 00 D4 76 6C 09 45 4E 3F 00 88 88 87 92 5C 92 8D 95 96 91 
HI HI AE 07 88 55 00 D4 76 6C 09 45 4B 4A 09 87 87 87 92 96 92 8E 95 96 91 
HI HI AE 07 88 55 00 D4 76 6C 09 45 48 56 00 88 87 86 91 62 92 8E 95 96 91 
HI HI AE 07 88 55 00 D4 76 6C 09 45 44 62 00 88 87 86 91 69 92 8E 95 97 91 
HI HI AE 07 88 55 00 D4 76 6C 09 45 42 6D 00 89 87 86 91 5A 93 8F 95 97 91 
HI HI AE 07 88 55 00 D4 76 6C 09 45 3F 76 01 87 87 86 91 65 93 8F 96 97 90 
HI HI AE 07 88 55 00 D4 76 6C 09 45 3D 7F 2E 6E 89 87 93 7E 93 8F 96 97 91 
HI HI AE 07 88 55 00 D4 76 6C 09 45 3C 84 66 55 8C 8A 96 5A 93 8F 96 97 91 
HI HI AE 07 88 55 00 D4 76 6C 09 45 3A 86 60 57 8D 8A 97 5C 94 90 96 97 91 
HI HI AE 07 88 55 00 D4 76 6C 09 45 39 85 61 57 8E 8C 99 A8 94 90 97 97 91 
HI HI AE 07 88 55 00 D4 76 6C 09 45 39 82 68 52 8F 8D 9B 78 94 90 97 97 91 
HI HI AE 07 88 55 00 D4 76 6C 09 45 38 7D 6D 52 91 8E 9B 95 94 90 97 97 91 
HI HI AE 07 88 55 00 D4 76 6C 09 45 38 76 6F 50 91 8F 9C 8B 94 90 97 98 91 
HI HI AE 07 88 55 00 D4 76 6C 09 45 38 6F 6F 4F 91 8F 9C 80 94 91 97 98 91 
HI HI AE 07 88 55 00 D4 76 6C 09 45 39 68 6D 52 92 8F 9D 72 94 91 97 98 91 
HI HI AE 07 88 55 00 D4 76 6C 09 45 3A 61 6A 52 92 8F 9D 81 94 91 97 98 91 
HI HI AE 07 88 55 00 D4 76 6C 09 45 3C 5D 65 56 92 8F 9C 7B 95 91 97 98 91 
HI HI AE 07 88 55 00 D4 76 6C 09 45 3E 5A 5F 59 91 8F 9C 73 95 91 97 98 91
HI HI AE 07 88 55 00 D4 76 6C 09 45 42 59 5B 5A 91 8F 9C 74 95 91 97 98 91 
HI HI AE 07 88 55 00 D4 76 

------------------------¡¡£Æ£Ï-£²£¹¤Îµ°Æ»Í×ÁÇ¡¡------------------------------        
 
¡¡¡¡¢£ µ°Æ»Í×ÁÇ£±¡§¡Öjamsat¡Ýkeps¡§£±£°£¶£°¡×¤è¤ê         
¡¡¡¡¡¡¡¡¡¡¡¡¡¡¡¡¡¡¡¡SB KEPS @ AMSAT  $ORB01354.N
¡¡¡¡¡¡¡¡¡¡¡¡¡¡¡¡¡¡¡¡2Line Orbital Elements 01354.AMSAT

HR AMSAT ORBITAL ELEMENTS FOR AMATEUR SATELLITES IN NASA FORMAT
FROM WA5QGD FORT WORTH,TX December 20, 2001
SEND SUBSCRIBE/UNSUBSCRIBE TO majordomo@amsat.org ONLY
BID: ORB01354.N

¡¡DECODE 2-LINE ELSETS WITH THE FOLLOWING KEY:
¡¡1 AAAAAU 00  0  0 BBBBB.BBBBBBBB  .CCCCCCCC  00000-0  00000-0 0  DDDZ
¡¡2 AAAAA EEE.EEEE FFF.FFFF GGGGGGG HHH.HHHH III.IIII JJ.JJJJJJJJKKKKKZ
¡¡KEY: A-CATALOGNUM B-EPOCHTIME C-DECAY D-ELSETNUM E-INCLINATION F-RAAN
¡¡G-ECCENTRICITY H-ARGPERIGEE I-MNANOM J-MNMOTION K-ORBITNUM Z-CHECKSUM

FO-29
1 24278U 96046B   01353.61910736  .00000152  00000-0  19346-3 0 04745
2 24278 098.5125 193.4430 0350218 241.1056 115.4528 13.52806048263719

 ¢£ µ°Æ»Í×ÁÇ£²¡§¡Öjamsat¡Ýkeps¡§£±£°£¶£±¡×¤è¤ê
¡¡¡¡¡¡¡¡¡¡¡¡¡¡¡¡SB KEPS @ AMSAT  $ORB01354.O
¡¡¡¡¡¡¡¡¡¡¡¡¡¡¡¡Orbital Elements  01354.OSCAR

HR AMSAT ORBITAL ELEMENTS FOR OSCAR SATELLITES
FROM WA5QGD FORT WORTH,TX December 20, 2001
SEND SUBSCRIBE/UNSUBSCRIBE TO majordomo@amsat.org ONLY
BID: ORB01354.O
TO ALL RADIO AMATEURS BT

Satellite: FO-29
Catalog number: 24278
Epoch time:      01353.61910736
Element set:    0474
Inclination:      098.5125 deg
RA of node:       193.4430 deg
Eccentricity:    0.0350218
Arg of perigee:   241.1056 deg
Mean anomaly:     115.4528 deg
Mean motion:   13.52806048 rev/day
Decay rate:       1.52e-06 rev/day^2
Epoch rev:           26371
Checksum:              286

